Home   Weather   Recklinghausen   Past weeks

Flag for Germany Past Weather in Recklinghausen, North Rhine-Westphalia, Germany — Yesterday and Last 2 Weeks

Now
41 °F

Scattered showers. Scattered clouds.


Feels Like: 33 °F
Forecast: 34 / 51 °F
Wind: 16 mph from West

Location: Dortmund / Wickede

Current Time: Apr 25, 2017 at 10:42:07 am

Latest Report: Apr 25, 2017 at 9:50 am


Visibility: N/A

Pressure: 29.71 "Hg

Humidity: 66%

Dew Point: 30 °F

Location of RecklinghausenLocation

Past Weather in Recklinghausen — Graph

°F

Recklinghausen Temperature Yesterday

Maximum temperature yesterday: 57 °F (at 2:50 pm)
Minimum temperature yesterday: 34 °F (at 5:20 am)
Average temperature yesterday: 49 °F

High & Low Weather Summary for the Past Weeks

 TemperatureHumidityPressure
High57 °F (Apr 24, 2:50 pm)93% (Apr 14, 6:50 am)30.60 "Hg (Apr 14, 6:50 am)
Low25 °F (Apr 20, 5:20 am)28% (Apr 20, 3:20 pm)29.68 "Hg (Apr 25, 5:20 am)
Average45 °F65%30.15 "Hg
* Reported Apr 10 8:20 am — Apr 25 8:50 am, Recklinghausen, Weather by CustomWeather, © 2017

Note: Actual official high and low records may vary slightly from our data, if they occured in-between our weather recording intervals... More about our weather records

Advertising

Recklinghausen Weather History for the Previous 24 Hours

Scroll right to see more
 ConditionsComfort  
Time TempWeatherWind HumidityBarometerVisibility
8:50 am
Tue, Apr 25
41 °FPartly sunny.12 mph81%29.71 "HgN/A
8:20 am41 °FBroken clouds.10 mph87%29.68 "HgN/A
7:50 am41 °FPartly sunny.10 mph81%29.68 "HgN/A
7:20 am39 °FPartly sunny.13 mph87%29.68 "HgN/A
6:50 am39 °FPartly sunny.12 mph87%29.68 "HgN/A
6:20 am39 °FLight rain. Partly sunny.10 mph87%29.68 "HgN/A
5:50 am39 °FLight rain. Passing clouds.9 mph87%29.68 "HgN/A
5:20 am39 °FLight rain. Passing clouds.8 mph93%29.68 "HgN/A
9:50 pm
Mon, Apr 24
50 °FClear.7 mph62%29.77 "Hg10 mi
9:20 pm50 °FPassing clouds.6 mph58%29.77 "HgN/A
8:50 pm52 °FClear.8 mph50%29.77 "Hg10 mi
8:20 pm52 °FSunny.8 mph50%29.80 "Hg10 mi
7:50 pm54 °FSunny.10 mph47%29.80 "Hg10 mi
7:20 pm54 °FSunny.12 mph47%29.80 "Hg10 mi
6:50 pm54 °FPassing clouds.10 mph47%29.83 "HgN/A
6:20 pm54 °FSunny.12 mph47%29.83 "Hg10 mi
5:50 pm54 °FPassing clouds.13 mph47%29.83 "HgN/A
5:20 pm55 °FPassing clouds.14 mph44%29.86 "HgN/A
4:50 pm55 °FSunny.15 mph44%29.86 "Hg10 mi
4:20 pm55 °FSunny.16 mph44%29.86 "Hg10 mi
3:50 pm55 °FSunny.16 mph44%29.89 "Hg10 mi
3:20 pm55 °FPassing clouds.17 mph47%29.89 "HgN/A
2:50 pm57 °FPassing clouds.16 mph44%29.92 "HgN/A
2:20 pm55 °FPassing clouds.14 mph44%29.92 "HgN/A
1:50 pm55 °FPassing clouds.16 mph47%29.95 "HgN/A
1:20 pm54 °FSunny.18 mph47%29.95 "Hg10 mi
12:50 pm52 °FSunny.16 mph50%29.98 "Hg10 mi
12:20 pm54 °FPassing clouds.16 mph47%29.98 "HgN/A
11:50 am52 °FPassing clouds.17 mph47%29.98 "HgN/A
11:20 am52 °FSunny.15 mph47%30.01 "Hg10 mi
10:50 am50 °FPassing clouds.13 mph50%30.01 "HgN/A
10:20 am46 °FSunny.14 mph53%30.01 "Hg10 mi
Weather by CustomWeather, © 2017

See weather overviewHow to use our weather pages